User: anonymous   Login
Location: *
(33.8649°S, 62.1526°E)
Time: 15:30:05
(UTC+00:00)
Language:

Cosmos 1300 Rocket - Orbit

View from above orbital plane
View from above orbital plane
View from above satellite
View from above satellite

Ground track
Ground track

The orbit data is extracted from the following two-line orbital elements,

1 12786U 81082B   21105.19501472  .00000067  00000-0  51250-5 0  9992
2 12786  82.4864  89.9837 0016588 323.9752  36.0344 14.84825073142257
Epoch (UTC): 15 April 2021 04:40:49
Eccentricity: 0.0016588
inclination: 82.4864°
perigee height: 602 km
apogee height: 626 km
right ascension of ascending node: 89.9837°
argument of perigee: 323.9752°
revolutions per day: 14.84825073
mean anomaly at epoch: 36.0344°
orbit number at epoch: 14225

The dashed part of the orbit path shows where the satellite is in the earth's shadow,  

DLR